TimeCDT,TemperatureF,Dew PointF,Humidity,Sea Level PressureIn,VisibilityMPH,Wind Direction,Wind SpeedMPH,Gust SpeedMPH,PrecipitationIn,Events,Conditions,WindDirDegrees,DateUTC
12:13 AM,55.4,53.6,94,29.83,10.0,ESE,11.5,-,N/A,,Overcast,110,2013-05-28 05:13:00
12:33 AM,55.4,53.6,94,29.82,4.0,East,10.4,-,N/A,,Overcast,100,2013-05-28 05:33:00
12:53 AM,55.4,53.6,94,29.81,5.0,East,11.5,-,N/A,,Overcast,100,2013-05-28 05:53:00
1:14 AM,55.4,53.6,94,29.79,2.5,East,10.4,-,N/A,,Overcast,100,2013-05-28 06:14:00
1:33 AM,53.6,53.6,100,29.80,2.5,East,9.2,-,N/A,,Overcast,100,2013-05-28 06:33:00
1:53 AM,53.6,53.6,100,29.80,2.5,ESE,9.2,-,N/A,,Overcast,110,2013-05-28 06:53:00
2:14 AM,53.6,53.6,100,29.81,3.0,ESE,8.1,-,N/A,,Overcast,110,2013-05-28 07:14:00
2:33 AM,53.6,53.6,100,29.82,1.5,SE,3.5,-,N/A,,Overcast,130,2013-05-28 07:33:00
2:53 AM,53.6,53.6,100,29.81,1.2,East,3.5,-,N/A,,Overcast,100,2013-05-28 07:53:00
3:14 AM,53.6,53.6,100,29.79,1.2,East,6.9,-,N/A,,Overcast,80,2013-05-28 08:14:00
3:33 AM,53.6,53.6,100,29.78,2.0,East,8.1,-,N/A,,Overcast,90,2013-05-28 08:33:00
3:53 AM,53.6,53.6,100,29.78,2.0,East,8.1,-,N/A,,Overcast,80,2013-05-28 08:53:00
4:13 AM,53.6,53.6,100,29.77,2.5,East,11.5,-,N/A,,Overcast,100,2013-05-28 09:13:00
4:33 AM,53.6,53.6,100,29.76,1.8,East,8.1,-,N/A,,Overcast,100,2013-05-28 09:33:00
4:54 AM,53.6,53.6,100,29.77,1.5,East,4.6,-,N/A,,Overcast,90,2013-05-28 09:54:00
5:13 AM,53.6,53.6,100,29.76,2.0,East,5.8,-,N/A,,Overcast,90,2013-05-28 10:13:00
5:33 AM,53.6,53.6,100,29.75,2.5,East,6.9,-,N/A,,Overcast,100,2013-05-28 10:33:00
5:54 AM,53.6,53.6,100,29.75,1.8,East,5.8,-,N/A,,Overcast,100,2013-05-28 10:54:00
6:13 AM,53.6,53.6,100,29.75,3.0,East,6.9,-,N/A,,Overcast,100,2013-05-28 11:13:00
6:33 AM,53.6,53.6,100,29.75,2.0,ESE,5.8,-,N/A,,Overcast,110,2013-05-28 11:33:00
6:54 AM,53.6,53.6,100,29.74,0.5,East,9.2,-,N/A,Fog,Fog,100,2013-05-28 11:54:00
7:13 AM,53.6,51.8,94,29.74,1.5,ESE,10.4,-,N/A,,Overcast,110,2013-05-28 12:13:00
7:33 AM,53.6,53.6,100,29.74,0.5,ESE,11.5,-,N/A,Fog,Fog,110,2013-05-28 12:33:00
7:54 AM,53.6,53.6,100,29.73,0.2,East,8.1,-,N/A,Fog,Fog,100,2013-05-28 12:54:00
8:13 AM,53.6,53.6,100,29.73,0.2,East,8.1,-,N/A,Fog,Fog,80,2013-05-28 13:13:00
8:33 AM,53.6,53.6,100,29.72,0.2,East,10.4,-,N/A,Fog,Fog,100,2013-05-28 13:33:00
8:54 AM,53.6,53.6,100,29.72,1.5,ESE,12.7,-,N/A,,Overcast,110,2013-05-28 13:54:00
9:13 AM,53.6,53.6,100,29.72,0.8,East,11.5,-,N/A,,Overcast,100,2013-05-28 14:13:00
9:33 AM,53.6,53.6,100,29.72,1.5,East,13.8,-,N/A,,Overcast,100,2013-05-28 14:33:00
9:53 AM,55.4,53.6,94,29.72,4.0,East,13.8,-,N/A,,Overcast,100,2013-05-28 14:53:00
10:13 AM,55.4,53.6,94,29.72,3.0,East,10.4,-,N/A,,Overcast,100,2013-05-28 15:13:00
10:33 AM,55.4,53.6,94,29.76,5.0,Calm,Calm,-,N/A,,Overcast,0,2013-05-28 15:33:00
10:53 AM,55.4,53.6,94,29.75,7.0,SE,5.8,-,N/A,,Overcast,130,2013-05-28 15:53:00
11:13 AM,55.4,53.6,94,29.76,7.0,SSE,4.6,-,N/A,,Overcast,150,2013-05-28 16:13:00
11:33 AM,55.4,53.6,94,29.76,7.0,SSE,5.8,-,N/A,,Overcast,150,2013-05-28 16:33:00
11:53 AM,55.4,53.6,94,29.76,7.0,SSE,4.6,-,N/A,,Overcast,160,2013-05-28 16:53:00
12:13 PM,55.4,53.6,94,29.76,7.0,South,4.6,-,N/A,,Overcast,190,2013-05-28 17:13:00
12:33 PM,55.4,53.6,94,29.75,5.0,SE,3.5,-,N/A,,Overcast,130,2013-05-28 17:33:00
12:53 PM,55.4,53.6,94,29.75,5.0,SSE,3.5,-,N/A,,Overcast,160,2013-05-28 17:53:00
1:13 PM,57.2,53.6,88,29.75,7.0,SE,4.6,-,N/A,,Overcast,140,2013-05-28 18:13:00
1:34 PM,57.2,53.6,88,29.75,5.0,SSE,3.5,-,N/A,,Overcast,150,2013-05-28 18:34:00
1:53 PM,57.2,53.6,88,29.75,7.0,Calm,Calm,-,N/A,,Overcast,0,2013-05-28 18:53:00
2:13 PM,57.2,53.6,88,29.75,5.0,Calm,Calm,-,N/A,,Overcast,0,2013-05-28 19:13:00
2:34 PM,57.2,53.6,88,29.76,5.0,WSW,4.6,-,N/A,,Overcast,250,2013-05-28 19:34:00
2:53 PM,57.2,53.6,88,29.76,5.0,Calm,Calm,-,N/A,,Overcast,0,2013-05-28 19:53:00
3:13 PM,57.2,53.6,88,29.75,5.0,Calm,Calm,-,N/A,,Overcast,0,2013-05-28 20:13:00
3:34 PM,59.0,55.4,88,29.75,7.0,Calm,Calm,-,N/A,,Overcast,0,2013-05-28 20:34:00
3:53 PM,60.8,55.4,82,29.75,7.0,East,3.5,-,N/A,,Overcast,100,2013-05-28 20:53:00
4:13 PM,60.8,55.4,82,29.74,7.0,ESE,3.5,-,N/A,,Overcast,120,2013-05-28 21:13:00
4:34 PM,62.6,55.4,77,29.74,10.0,Calm,Calm,-,N/A,,Overcast,0,2013-05-28 21:34:00
4:53 PM,60.8,55.4,82,29.74,10.0,SSE,4.6,-,N/A,,Overcast,160,2013-05-28 21:53:00
5:13 PM,62.6,55.4,77,29.74,10.0,South,4.6,-,N/A,,Overcast,180,2013-05-28 22:13:00
5:34 PM,62.6,55.4,77,29.74,10.0,South,4.6,-,N/A,,Overcast,190,2013-05-28 22:34:00
5:53 PM,62.6,55.4,77,29.74,10.0,South,5.8,-,N/A,,Overcast,180,2013-05-28 22:53:00
6:13 PM,62.6,55.4,77,29.74,10.0,South,3.5,-,N/A,,Overcast,190,2013-05-28 23:13:00
6:34 PM,60.8,55.4,82,29.74,10.0,SSE,5.8,-,N/A,,Mostly Cloudy,160,2013-05-28 23:34:00
6:53 PM,60.8,55.4,82,29.74,10.0,SSE,5.8,-,N/A,,Scattered Clouds,160,2013-05-28 23:53:00
7:13 PM,60.8,55.4,82,29.74,10.0,South,6.9,-,N/A,,Mostly Cloudy,170,2013-05-29 00:13:00
7:33 PM,62.6,55.4,77,29.74,10.0,SE,4.6,-,N/A,,Scattered Clouds,140,2013-05-29 00:33:00
7:53 PM,62.6,55.4,77,29.73,10.0,SE,6.9,-,N/A,,Clear,140,2013-05-29 00:53:00
8:13 PM,60.8,55.4,82,29.72,10.0,ESE,5.8,-,N/A,,Clear,120,2013-05-29 01:13:00
8:34 PM,59.0,55.4,88,29.72,10.0,SE,5.8,-,N/A,,Clear,130,2013-05-29 01:34:00
8:53 PM,57.2,53.6,88,29.72,10.0,SE,4.6,-,N/A,,Clear,140,2013-05-29 01:53:00
9:13 PM,55.4,53.6,94,29.72,10.0,SE,5.8,-,N/A,,Clear,130,2013-05-29 02:13:00
9:33 PM,55.4,53.6,94,29.74,7.0,SE,6.9,-,N/A,,Clear,140,2013-05-29 02:33:00
9:53 PM,55.4,53.6,94,29.75,7.0,SSE,6.9,-,N/A,,Clear,150,2013-05-29 02:53:00
10:13 PM,55.4,53.6,94,29.76,5.0,SSE,8.1,-,N/A,,Clear,160,2013-05-29 03:13:00
10:33 PM,55.4,53.6,94,29.75,5.0,SE,5.8,-,N/A,,Clear,140,2013-05-29 03:33:00
10:53 PM,53.6,51.8,94,29.75,4.0,ESE,4.6,-,N/A,,Clear,120,2013-05-29 03:53:00
11:13 PM,53.6,51.8,94,29.74,4.0,ESE,5.8,-,N/A,,Clear,120,2013-05-29 04:13:00
11:33 PM,53.6,51.8,94,29.74,3.0,SE,4.6,-,N/A,,Clear,140,2013-05-29 04:33:00
11:53 PM,53.6,51.8,94,29.76,3.0,SSE,8.1,-,N/A,,Clear,150,2013-05-29 04:53:00